• In Uzbekistan
  • List of Countries
  • For 7 days
  • Water Temperature
  • Weather Map
  • Weather Widgets
  • user-avatar
    Login

    Hourly Weather Mombasa

    Today, 19 August, Monday

    Time Temperature Precipitation Wind Pressure Humidity
    00:00 +23°C° 0 mm 5 mps 761 mmHg 86%
    01:00 +23°C° 0 mm 5 mps 761 mmHg 87%
    02:00 +23°C° 0 mm 5 mps 761 mmHg 88%
    03:00 +23°C° 0 mm 5 mps 760 mmHg 89%
    04:00 +23°C° 0.2 mm 5 mps 761 mmHg 90%
    05:00 +22°C° 0.2 mm 5 mps 761 mmHg 91%
    06:00 +22°C° 0.2 mm 5 mps 761 mmHg 92%
    07:00 +24°C° 0.1 mm 6 mps 762 mmHg 83%
    08:00 +27°C° 0.1 mm 6 mps 762 mmHg 74%
    09:00 +28°C° 0.1 mm 6 mps 763 mmHg 65%
    10:00 +29°C° 0 mm 7 mps 762 mmHg 59%
    11:00 +32°C° 0 mm 7 mps 762 mmHg 53%
    12:00 +33°C° 0 mm 7 mps 762 mmHg 47%
    13:00 +33°C° 0 mm 7 mps 761 mmHg 48%
    14:00 +32°C° 0 mm 7 mps 760 mmHg 49%
    15:00 +32°C° 0 mm 7 mps 760 mmHg 51%
    16:00 +30°C° 0 mm 7 mps 760 mmHg 57%
    17:00 +28°C° 0 mm 7 mps 760 mmHg 63%
    18:00 +27°C° 0 mm 7 mps 760 mmHg 69%
    19:00 +27°C° 0 mm 7 mps 761 mmHg 74%
    20:00 +26°C° 0 mm 7 mps 761 mmHg 78%
    21:00 +24°C° 0 mm 6 mps 761 mmHg 83%
    22:00 +24°C° 0 mm 6 mps 761 mmHg 85%
    23:00 +23°C° 0 mm 6 mps 761 mmHg 88%

    Tomorrow, 20 August, Tuesday

    Time Temperature Precipitation Wind Pressure Humidity
    00:00 +23°C° 0 mm 5 mps 761 mmHg 90%
    01:00 +23°C° 0 mm 5 mps 761 mmHg 91%
    02:00 +23°C° 0 mm 5 mps 761 mmHg 92%
    03:00 +22°C° 0 mm 5 mps 760 mmHg 93%
    04:00 +22°C° 0 mm 5 mps 761 mmHg 93%
    05:00 +22°C° 0 mm 5 mps 761 mmHg 92%
    06:00 +22°C° 0 mm 5 mps 761 mmHg 92%
    07:00 +25°C° 0.1 mm 5 mps 762 mmHg 84%
    08:00 +27°C° 0.1 mm 6 mps 762 mmHg 75%
    09:00 +28°C° 0.1 mm 7 mps 763 mmHg 67%
    10:00 +30°C° 0 mm 7 mps 763 mmHg 61%
    11:00 +32°C° 0 mm 7 mps 762 mmHg 54%
    12:00 +33°C° 0 mm 7 mps 762 mmHg 48%
    13:00 +33°C° 0 mm 7 mps 762 mmHg 46%
    14:00 +33°C° 0 mm 7 mps 761 mmHg 45%
    15:00 +33°C° 0 mm 7 mps 760 mmHg 44%
    16:00 +32°C° 0 mm 7 mps 760 mmHg 51%
    17:00 +29°C° 0 mm 7 mps 760 mmHg 58%
    18:00 +28°C° 0 mm 6 mps 760 mmHg 65%
    19:00 +27°C° 0 mm 6 mps 761 mmHg 72%
    20:00 +26°C° 0 mm 6 mps 761 mmHg 80%
    21:00 +24°C° 0 mm 6 mps 762 mmHg 88%
    22:00 +24°C° 0 mm 6 mps 762 mmHg 89%
    23:00 +24°C° 0 mm 6 mps 762 mmHg 90%

    Day after tomorrow, 21 August, Wednesday

    Time Temperature Precipitation Wind Pressure Humidity
    00:00 +23°C° 0 mm 6 mps 762 mmHg 91%
    01:00 +23°C° 0 mm 6 mps 761 mmHg 90%
    02:00 +23°C° 0 mm 6 mps 761 mmHg 90%
    03:00 +23°C° 0 mm 6 mps 761 mmHg 89%
    04:00 +23°C° 0 mm 6 mps 761 mmHg 90%
    05:00 +23°C° 0 mm 6 mps 761 mmHg 91%
    06:00 +23°C° 0 mm 5 mps 762 mmHg 92%
    07:00 +24°C° 0.1 mm 6 mps 762 mmHg 84%
    08:00 +27°C° 0.1 mm 6 mps 763 mmHg 76%
    09:00 +29°C° 0.1 mm 7 mps 763 mmHg 68%
    10:00 +30°C° 0.1 mm 7 mps 763 mmHg 63%
    11:00 +32°C° 0.1 mm 8 mps 763 mmHg 58%
    12:00 +33°C° 0.1 mm 8 mps 762 mmHg 52%
    13:00 +33°C° 0.1 mm 8 mps 762 mmHg 51%
    14:00 +33°C° 0.1 mm 8 mps 761 mmHg 50%
    15:00 +33°C° 0.1 mm 8 mps 760 mmHg 49%
    16:00 +32°C° 0 mm 8 mps 760 mmHg 55%
    17:00 +29°C° 0 mm 7 mps 760 mmHg 61%
    18:00 +28°C° 0 mm 7 mps 760 mmHg 66%
    19:00 +27°C° 0 mm 7 mps 761 mmHg 73%
    20:00 +27°C° 0 mm 7 mps 761 mmHg 79%
    21:00 +26°C° 0 mm 7 mps 762 mmHg 85%
    22:00 +24°C° 0 mm 7 mps 762 mmHg 87%
    23:00 +24°C° 0 mm 6 mps 762 mmHg 89%

    22 August, Thursday

    Time Temperature Precipitation Wind Pressure Humidity
    00:00 +24°C° 0 mm 6 mps 762 mmHg 90%
    01:00 +24°C° 0.1 mm 6 mps 761 mmHg 91%
    02:00 +24°C° 0.1 mm 6 mps 761 mmHg 91%
    03:00 +24°C° 0.1 mm 7 mps 760 mmHg 91%
    04:00 +24°C° 0.2 mm 6 mps 761 mmHg 91%
    05:00 +23°C° 0.2 mm 6 mps 761 mmHg 91%
    06:00 +23°C° 0.2 mm 6 mps 761 mmHg 91%
    07:00 +26°C° 0.1 mm 6 mps 762 mmHg 85%
    08:00 +27°C° 0.1 mm 7 mps 762 mmHg 78%
    09:00 +28°C° 0.1 mm 8 mps 763 mmHg 71%
    10:00 +31°C° 0 mm 8 mps 762 mmHg 65%
    11:00 +32°C° 0 mm 9 mps 762 mmHg 58%
    12:00 +33°C° 0 mm 9 mps 762 mmHg 52%
    13:00 +33°C° 0 mm 9 mps 761 mmHg 53%
    14:00 +33°C° 0 mm 9 mps 760 mmHg 54%
    15:00 +33°C° 0 mm 9 mps 759 mmHg 55%
    16:00 +31°C° 0 mm 9 mps 760 mmHg 60%
    17:00 +29°C° 0 mm 9 mps 760 mmHg 66%
    18:00 +28°C° 0 mm 8 mps 760 mmHg 72%
    19:00 +27°C° 0.1 mm 8 mps 760 mmHg 76%
    20:00 +27°C° 0.1 mm 8 mps 761 mmHg 80%
    21:00 +26°C° 0.1 mm 8 mps 761 mmHg 85%
    22:00 +26°C° 0.1 mm 8 mps 761 mmHg 86%
    23:00 +24°C° 0.1 mm 7 mps 761 mmHg 88%

    23 August, Friday

    Time Temperature Precipitation Wind Pressure Humidity
    00:00 +24°C° 0.1 mm 7 mps 761 mmHg 90%
    01:00 +24°C° 0.3 mm 7 mps 761 mmHg 90%
    02:00 +24°C° 0.3 mm 7 mps 760 mmHg 90%
    03:00 +24°C° 0.3 mm 6 mps 760 mmHg 90%
    04:00 +24°C° 0.4 mm 6 mps 760 mmHg 90%
    05:00 +24°C° 0.4 mm 6 mps 761 mmHg 91%
    06:00 +24°C° 0.4 mm 6 mps 761 mmHg 91%
    07:00 +26°C° 0.4 mm 6 mps 761 mmHg 85%
    08:00 +27°C° 0.4 mm 7 mps 762 mmHg 78%
    09:00 +28°C° 0.4 mm 7 mps 763 mmHg 72%
    10:00 +31°C° 0.1 mm 8 mps 762 mmHg 66%
    11:00 +32°C° 0.1 mm 8 mps 762 mmHg 60%
    12:00 +33°C° 0.1 mm 9 mps 761 mmHg 55%
    13:00 +33°C° 0 mm 9 mps 761 mmHg 55%
    14:00 +33°C° 0 mm 8 mps 760 mmHg 56%
    15:00 +33°C° 0 mm 8 mps 759 mmHg 57%
    16:00 +32°C° 0 mm 8 mps 760 mmHg 63%
    17:00 +29°C° 0 mm 8 mps 760 mmHg 68%
    18:00 +28°C° 0 mm 7 mps 760 mmHg 74%
    19:00 +27°C° 0.1 mm 7 mps 760 mmHg 79%
    20:00 +26°C° 0.1 mm 7 mps 761 mmHg 84%
    21:00 +26°C° 0.1 mm 7 mps 761 mmHg 89%
    22:00 +26°C° 0.4 mm 7 mps 761 mmHg 90%
    23:00 +24°C° 0.4 mm 7 mps 761 mmHg 91%

    24 August, Saturday

    Time Temperature Precipitation Wind Pressure Humidity
    00:00 +24°C° 0.4 mm 7 mps 761 mmHg 92%
    01:00 +24°C° 0.7 mm 6 mps 761 mmHg 92%
    02:00 +24°C° 0.7 mm 6 mps 760 mmHg 92%
    03:00 +24°C° 0.7 mm 6 mps 760 mmHg 93%
    04:00 +25°C° 0.9 mm 5 mps 760 mmHg 94%
    05:00 +25°C° 0.9 mm 5 mps 761 mmHg 94%
    06:00 +25°C° 0.9 mm 5 mps 761 mmHg 95%
    07:00 +26°C° 1.4 mm 5 mps 762 mmHg 90%
    08:00 +27°C° 1.4 mm 6 mps 762 mmHg 85%
    09:00 +28°C° 1.4 mm 6 mps 763 mmHg 81%
    10:00 +28°C° 2.1 mm 7 mps 762 mmHg 79%
    11:00 +29°C° 2.1 mm 7 mps 762 mmHg 77%
    12:00 +29°C° 2.1 mm 7 mps 762 mmHg 75%
    13:00 +29°C° 2 mm 7 mps 761 mmHg 77%
    14:00 +28°C° 2 mm 7 mps 761 mmHg 79%
    15:00 +28°C° 2 mm 8 mps 760 mmHg 81%
    16:00 +27°C° 1 mm 8 mps 761 mmHg 83%
    17:00 +26°C° 1 mm 8 mps 761 mmHg 85%
    18:00 +26°C° 1 mm 7 mps 761 mmHg 87%
    19:00 +24°C° 0.5 mm 7 mps 761 mmHg 88%
    20:00 +24°C° 0.5 mm 6 mps 762 mmHg 88%
    21:00 +24°C° 0.5 mm 6 mps 762 mmHg 89%
    22:00 +24°C° 0.1 mm 6 mps 762 mmHg 91%
    23:00 +23°C° 0.1 mm 5 mps 762 mmHg 93%
    Show more